Weather History for Naples, Italy

Change the Weather History Date:

Tuesday, January 1, 2013

  Actual Average Record
Temperature  
Mean Temperature 46 °F -  
Max Temperature 57 °F 54 °F 69 °F (2009)
Min Temperature 35 °F 39 °F 33 °F (2000)
Degree Days  
Heating Degree Days 19    
Moisture  
Dew Point 38 °F    
Average Humidity 74    
Maximum Humidity 87    
Minimum Humidity 55    
Precipitation  
Precipitation 0.00 in 0.14 in - ()
Sea Level Pressure  
Sea Level Pressure 30.12 in    
Wind  
Wind Speed 3 mph ()    
Max Wind Speed 7 mph    
Max Gust Speed -    
Visibility 3.9 miles    
Events      
Averages and records for this station are not official NWS values.
T = Trace of Precipitation, MM = Missing Value Source: Averaged Metar Reports

Daily Weather History Graph

Daily Weather History Graph

Search for Another Location

Airport:

Trip Planner

Search our weather history database for the weather conditions in past years. The results will help you decide how hot, cold, wet, or windy it might be!

Date:

Astronomy

Jan. 01, 2013 Rise Set
Actual Time 7:27 AM CET 4:45 PM CET
Civil Twilight 6:56 AM CET 5:16 PM CET
Nautical Twilight 6:22 AM CET 5:51 PM CET
Astronomical Twilight 5:48 AM CET 6:24 PM CET
Moon 9:01 PM CET (1/1) 9:29 AM CET (1/1)
Length of Visible Light 10h 20m
Length of Day
9h 18m
Waning Gibbous, 85% of the Moon is Illuminated
Jan 1
Waning Gibbous
Jan 5
Last Quarter
Jan 11
New
Jan 19
First Quarter
Jan 27
Full

Hourly Weather History & Observations

Time (CET) Temp. Windchill Dew Point Humidity Pressure Visibility Wind Dir Wind Speed Gust Speed Precip Events Conditions
12:20 AM 41.0 °F 39.0 °F 33.8 °F 76% 30.15 in 3.1 mi NNW 3.5 mph - N/A   Mist
12:50 AM 39.2 °F 35.9 °F 32.0 °F 75% 30.15 in 0.6 mi NW 4.6 mph - N/A   Smoke
1:20 AM 41.0 °F 39.0 °F 33.8 °F 76% 30.15 in 1.2 mi North 3.5 mph - N/A   Smoke
1:50 AM 39.2 °F - 33.8 °F 81% 30.15 in 1.2 mi NNW 2.3 mph - N/A   Smoke
2:20 AM 39.2 °F - 33.8 °F 81% 30.15 in 3.1 mi NNW 2.3 mph - N/A   Smoke
2:50 AM 35.6 °F 31.7 °F 30.2 °F 81% 30.15 in 3.1 mi NNW 4.6 mph - N/A   Smoke
3:20 AM 37.4 °F - 32.0 °F 81% 30.15 in 3.1 mi North 2.3 mph - N/A   Smoke
3:50 AM 39.2 °F - 32.0 °F 75% 30.12 in 3.1 mi NNW 2.3 mph - N/A   Smoke
4:20 AM 39.2 °F 37.0 °F 32.0 °F 75% 30.12 in 3.1 mi North 3.5 mph - N/A   Smoke
4:50 AM 37.4 °F 34.9 °F 30.2 °F 75% 30.12 in 3.1 mi North 3.5 mph - N/A   Smoke
5:20 AM 39.2 °F 37.0 °F 32.0 °F 75% 30.12 in 3.7 mi NNW 3.5 mph - N/A   Unknown
5:50 AM 39.2 °F - 30.2 °F 70% 30.12 in 3.7 mi Variable 2.3 mph - N/A   Unknown
6:20 AM 37.4 °F - 30.2 °F 75% 30.12 in 3.7 mi Variable 2.3 mph - N/A   Unknown
6:50 AM 35.6 °F 32.8 °F 30.2 °F 81% 30.12 in 5.0 mi NW 3.5 mph - N/A   Unknown
7:20 AM 37.4 °F - 32.0 °F 81% 30.12 in 5.0 mi NNW 2.3 mph - N/A   Unknown
7:50 AM 37.4 °F 34.9 °F 30.2 °F 75% 30.12 in 5.0 mi North 3.5 mph - N/A   Unknown
8:20 AM 39.2 °F 37.0 °F 32.0 °F 75% 30.12 in 5.0 mi NNW 3.5 mph - N/A   Unknown
8:50 AM 41.0 °F 39.0 °F 33.8 °F 76% 30.12 in - NW 3.5 mph - N/A   Clear
9:20 AM 44.6 °F 43.1 °F 33.8 °F 66% 30.15 in - North 3.5 mph - N/A   Clear
9:50 AM 46.4 °F 45.2 °F 33.8 °F 62% 30.15 in - North 3.5 mph - N/A   Clear
10:20 AM 48.2 °F - 35.6 °F 62% 30.15 in - NE 2.3 mph - N/A   Clear
10:50 AM 51.8 °F - 39.2 °F 62% 30.15 in 5.0 mi Variable 2.3 mph - N/A   Partly Cloudy
11:20 AM 53.6 °F - 39.2 °F 58% 30.12 in 5.0 mi Variable 1.2 mph - N/A   Partly Cloudy
11:50 AM 53.6 °F - 39.2 °F 58% 30.12 in 5.0 mi South 3.5 mph - N/A   Scattered Clouds
12:20 PM 57.2 °F - 41.0 °F 55% 30.12 in 6.2 mi South 4.6 mph - N/A   Mostly Cloudy
12:50 PM 57.2 °F - 42.8 °F 59% 30.09 in 6.2 mi South 4.6 mph - N/A   Mostly Cloudy
1:20 PM 57.2 °F - 42.8 °F 59% 30.09 in 6.2 mi SSW 5.8 mph - N/A   Mostly Cloudy
1:50 PM 57.2 °F - 44.6 °F 63% 30.09 in 6.2 mi South 6.9 mph - N/A   Mostly Cloudy
2:20 PM 55.4 °F - 44.6 °F 67% 30.09 in 5.0 mi SSW 5.8 mph - N/A   Mostly Cloudy
2:50 PM 55.4 °F - 44.6 °F 67% 30.09 in 5.0 mi Variable 2.3 mph - N/A   Mostly Cloudy
3:20 PM 53.6 °F - 44.6 °F 72% 30.09 in 5.0 mi NNW 3.5 mph - N/A   Mostly Cloudy
3:50 PM 53.6 °F - 44.6 °F 72% 30.09 in 4.3 mi NNW 3.5 mph - N/A   Light Drizzle
4:20 PM 51.8 °F - 44.6 °F 76% 30.09 in 4.3 mi Variable 2.3 mph - N/A   Mostly Cloudy
4:50 PM 51.8 °F - 44.6 °F 76% 30.09 in 3.7 mi North 3.5 mph - N/A   Mostly Cloudy
5:20 PM 51.8 °F - 44.6 °F 76% 30.09 in 3.1 mi Calm Calm - N/A   Mostly Cloudy
5:50 PM 51.8 °F - 42.8 °F 71% 30.09 in 3.1 mi Calm Calm - N/A   Mostly Cloudy
6:20 PM 50.0 °F - 42.8 °F 76% 30.12 in 3.1 mi Calm Calm - N/A   Mostly Cloudy
6:50 PM 46.4 °F - 42.8 °F 87% 30.09 in 3.1 mi Calm Calm - N/A   Mostly Cloudy
7:20 PM 48.2 °F - 42.8 °F 82% 30.12 in 3.1 mi Calm Calm - N/A   Mostly Cloudy
7:50 PM 48.2 °F - 42.8 °F 82% 30.12 in 3.1 mi Calm Calm - N/A   Mostly Cloudy
8:20 PM 46.4 °F - 42.8 °F 87% 30.12 in 5.0 mi Calm Calm - N/A   Mostly Cloudy
8:50 PM 48.2 °F - 44.6 °F 87% 30.12 in 5.0 mi Variable 2.3 mph - N/A   Scattered Clouds
9:20 PM 50.0 °F - 44.6 °F 82% 30.12 in 3.1 mi NE 1.2 mph - N/A   Scattered Clouds
9:50 PM 50.0 °F - 44.6 °F 82% 30.12 in 3.1 mi Variable 1.2 mph - N/A   Scattered Clouds
10:20 PM 50.0 °F - 44.6 °F 82% 30.12 in 3.1 mi Variable 1.2 mph - N/A   Mostly Cloudy
10:50 PM 50.0 °F - 44.6 °F 82% 30.12 in 3.1 mi Variable 1.2 mph - N/A   Mostly Cloudy
11:20 PM 50.0 °F - 44.6 °F 82% 30.09 in 3.1 mi Variable 1.2 mph - N/A   Mostly Cloudy
11:50 PM 50.0 °F - 44.6 °F 82% 30.09 in 3.1 mi Calm Calm - N/A   Mostly Cloudy